Weather reports worldwide

Advertisment
Geneve-Cointrin, Switzerland (6700): temperature & dewpoint: 15.07.2018 03:00:00 - 21.07.2018 03:00:00 (CEST)Geneve-Cointrin, Switzerland (6700): temperature 5cm: 15.07.2018 03:00:00 - 21.07.2018 03:00:00 (CEST)Geneve-Cointrin, Switzerland (6700): wind speed & gusts: 15.07.2018 03:00:00 - 21.07.2018 03:00:00 (CEST)Geneve-Cointrin, Switzerland (6700): wind direction: 15.07.2018 03:00:00 - 21.07.2018 03:00:00 (CEST)Geneve-Cointrin, Switzerland (6700): reduced air pressure: 15.07.2018 03:00:00 - 21.07.2018 03:00:00 (CEST)Geneve-Cointrin, Switzerland (6700): visibility: 15.07.2018 03:00:00 - 21.07.2018 03:00:00 (CEST)Geneve-Cointrin, Switzerland (6700): sunshine duration: 15.07.2018 03:00:00 - 21.07.2018 03:00:00 (CEST)Geneve-Cointrin, Switzerland (6700): precipitation: 15.07.2018 03:00:00 - 21.07.2018 03:00:00 (CEST)
Date & Time tt [°C] td [°C] tt 5cm [°C] ff [km/h] ff [kn] fx [km/h] fx [kn] dd ppp [hPa] vv [km] sd [min] rr [mm]
21.07.2018 03:00:00 17,2 16,0 15,9 10 5 14 7 SW 1013,8 - 0 0,0
21.07.2018 02:00:00 17,0 16,5 16,3 3 2 11 6 E 1014,2 - 0 0,0
21.07.2018 01:00:00 17,4 16,1 16,5 7 4 25 13 WNW 1014,6 - 0 0,0
21.07.2018 00:00:00 17,5 16,0 16,5 13 7 23 12 SSW 1015,1 - 0 0,0
20.07.2018 23:00:00 17,5 16,7 17,0 6 3 25 14 W 1015,5 20 0 0,1
20.07.2018 22:00:00 17,1 16,5 16,7 4 2 13 7 W 1015,6 - 0 0,0
20.07.2018 21:00:00 17,7 16,5 17,0 5 3 40 22 NNW 1015,3 - 0 2,8
20.07.2018 20:00:00 17,6 16,6 16,7 18 10 30 16 ENE 1014,4 9 0 4,4
20.07.2018 19:00:00 17,1 16,5 16,7 6 3 74 40 SW 1014,5 - 0 12,5
20.07.2018 18:00:00 23,2 13,3 23,6 19 11 39 21 N 1010,9 - 0 0,0
20.07.2018 17:00:00 27,0 15,7 29,6 14 8 31 17 N 1009,7 30 2 0,0
20.07.2018 16:00:00 29,5 12,0 32,6 19 10 33 18 SW 1009,8 - 32 0,0
20.07.2018 15:00:00 29,1 14,2 37,5 5 3 28 15 NW 1010,5 - 33 0,0
20.07.2018 14:00:00 30,2 11,6 36,1 18 10 33 18 SW 1011,0 40 42 0,0
20.07.2018 13:00:00 29,8 14,2 35,2 10 5 22 12 W 1011,5 - 21 0,0
20.07.2018 12:00:00 28,3 15,0 36,3 11 6 19 11 SW 1012,3 - 45 0,0
20.07.2018 11:00:00 26,7 14,8 34,3 8 5 14 8 W 1012,9 35 49 0,0
20.07.2018 10:00:00 24,6 14,3 30,6 4 2 12 6 W 1013,6 - 60 0,0
20.07.2018 09:00:00 22,9 15,1 27,6 5 3 8 5 W 1014,1 - 60 0,0
20.07.2018 08:00:00 20,6 15,4 22,8 2 1 4 2 NW 1014,3 40 60 0,0
20.07.2018 07:00:00 17,8 14,5 17,2 1 1 8 4 SSW 1014,8 - 16 0,0
20.07.2018 06:00:00 17,0 14,1 14,0 0 0 6 3 ESE 1014,6 - 0 0,0
20.07.2018 05:00:00 17,2 14,3 14,4 1 0 4 2 W 1014,5 - 0 0,0
20.07.2018 04:00:00 17,9 14,2 15,1 2 1 7 4 WSW 1014,3 - 0 0,0
20.07.2018 03:00:00 18,8 14,2 15,4 1 0 6 3 W 1014,1 - 0 0,0
20.07.2018 02:00:00 19,1 14,7 16,2 1 0 5 3 NE 1014,5 - 0 0,0
20.07.2018 01:00:00 20,1 14,5 16,9 3 1 5 3 WNW 1014,4 - 0 0,0
20.07.2018 00:00:00 21,1 14,9 18,1 4 2 6 3 WSW 1013,9 - 0 0,0
19.07.2018 23:00:00 22,4 15,0 18,5 3 1 9 5 E 1013,4 60 0 0,0
19.07.2018 22:00:00 23,3 15,2 20,6 7 4 14 8 NE 1013,1 - 0 0,0
19.07.2018 21:00:00 25,0 15,1 24,0 6 4 13 7 NNW 1012,6 - 34 0,0
19.07.2018 20:00:00 27,2 13,4 28,7 8 4 26 14 N 1012,0 60 45 0,0
19.07.2018 19:00:00 30,4 10,4 33,5 9 5 18 10 N 1011,2 - 60 0,0
19.07.2018 18:00:00 30,9 11,4 36,1 7 4 19 10 NNW 1011,2 - 60 0,0
19.07.2018 17:00:00 31,2 9,4 37,1 9 5 18 10 NNE 1011,6 50 60 0,0
19.07.2018 16:00:00 30,0 7,4 37,0 5 3 23 12 E 1012,3 - 60 0,0
19.07.2018 15:00:00 29,9 7,2 37,5 8 4 20 11 ENE 1012,7 - 60 0,0
19.07.2018 14:00:00 27,7 12,8 36,5 9 5 21 11 ENE 1013,6 45 60 0,0
19.07.2018 13:00:00 27,1 13,6 35,8 7 4 17 9 E 1014,2 - 60 0,0
19.07.2018 12:00:00 26,0 13,6 34,4 8 4 21 12 NE 1014,6 - 60 0,0
19.07.2018 11:00:00 25,0 14,1 31,8 14 8 23 12 NE 1014,9 45 60 0,0
19.07.2018 10:00:00 23,6 13,7 30,5 9 5 23 12 NNE 1015,4 - 60 0,0
19.07.2018 09:00:00 22,2 14,5 28,4 4 2 13 7 ENE 1015,5 - 60 0,0
19.07.2018 08:00:00 20,6 14,8 22,6 6 3 11 6 NNE 1015,9 50 60 0,0
19.07.2018 07:00:00 17,9 13,7 17,2 4 2 9 5 NNW 1016,2 - 18 0,0
19.07.2018 06:00:00 17,4 14,4 14,1 2 1 5 3 NNE 1015,9 - 0 0,0
19.07.2018 05:00:00 18,4 14,7 15,2 1 0 10 6 SSW 1015,8 - 0 0,0
19.07.2018 04:00:00 18,7 14,6 16,1 3 1 6 3 SW 1015,9 - 0 0,0
19.07.2018 03:00:00 20,1 15,4 17,9 3 2 13 7 WNW 1015,8 - 0 0,0
19.07.2018 02:00:00 21,1 15,0 17,9 7 4 12 6 W 1015,3 - 0 0,0
19.07.2018 01:00:00 20,4 15,1 18,5 9 5 14 7 W 1015,2 - 0 0,0
19.07.2018 00:00:00 21,7 15,3 20,1 6 3 9 5 WNW 1014,5 - 0 0,0
18.07.2018 23:00:00 23,5 14,5 20,2 4 2 9 5 ENE 1013,6 50 0 0,0
18.07.2018 22:00:00 24,2 14,4 21,3 4 2 16 9 ENE 1013,2 - 0 0,0
18.07.2018 21:00:00 26,4 13,8 25,2 5 3 17 9 NNW 1012,7 - 38 0,0
18.07.2018 20:00:00 28,3 13,2 29,9 7 4 15 8 N 1012,1 45 60 0,0
18.07.2018 19:00:00 29,0 12,9 32,0 6 4 17 9 N 1012,0 - 58 0,0
18.07.2018 18:00:00 28,6 12,7 35,3 7 4 19 11 ENE 1012,1 - 60 0,0
18.07.2018 17:00:00 29,3 11,9 34,7 9 5 18 10 NNE 1012,5 45 60 0,0
18.07.2018 16:00:00 28,5 12,6 35,8 10 6 19 10 NNE 1013,3 - 60 0,0
18.07.2018 15:00:00 27,7 11,9 35,3 9 5 19 10 E 1013,9 - 60 0,0
18.07.2018 14:00:00 27,9 13,1 35,5 10 5 19 10 ENE 1014,3 45 60 0,0
18.07.2018 13:00:00 26,9 14,1 33,3 15 8 27 14 NE 1015,1 - 60 0,0
18.07.2018 12:00:00 25,8 12,7 32,8 14 7 21 12 NE 1015,9 - 60 0,0
18.07.2018 11:00:00 24,2 14,3 30,8 13 7 25 14 NE 1016,2 45 60 0,0
18.07.2018 10:00:00 22,5 13,7 28,8 10 5 16 9 NNE 1016,8 - 60 0,0
18.07.2018 09:00:00 20,5 15,1 26,9 6 3 12 7 ENE 1017,3 - 60 0,0
18.07.2018 08:00:00 19,5 15,4 21,8 3 2 5 3 NNE 1017,2 40 60 0,0
18.07.2018 07:00:00 16,5 14,0 16,3 2 1 5 3 WSW 1017,9 - 20 0,0
18.07.2018 06:00:00 15,4 13,8 12,9 2 1 6 4 N 1017,9 - 0 0,0
18.07.2018 05:00:00 16,6 13,7 13,1 1 1 6 4 WSW 1017,7 - 0 0,0
18.07.2018 04:00:00 16,8 13,9 13,7 1 1 5 3 NNW 1017,6 - 0 0,0
18.07.2018 03:00:00 18,1 13,8 14,7 2 1 10 5 NNE 1017,8 - 0 0,0
18.07.2018 02:00:00 18,1 14,1 15,0 4 2 9 5 NW 1017,8 - 0 0,0
18.07.2018 01:00:00 18,9 14,0 15,8 4 2 9 5 NNW 1017,9 - 0 0,0
18.07.2018 00:00:00 21,2 13,7 18,3 8 4 16 9 NNE 1017,2 - 0 0,0
17.07.2018 23:00:00 21,4 14,0 17,5 6 3 16 8 N 1017,0 50 0 0,0
17.07.2018 22:00:00 24,5 13,0 22,0 9 5 23 13 N 1016,1 - 0 0,0
17.07.2018 21:00:00 24,7 12,9 23,2 7 4 20 11 NNW 1015,4 - 31 0,0
17.07.2018 20:00:00 26,5 12,6 28,0 10 5 26 14 NW 1014,6 45 46 0,0
17.07.2018 19:00:00 27,6 12,1 32,4 12 7 28 15 NE 1014,3 - 58 0,0
17.07.2018 18:00:00 27,3 13,2 30,6 7 4 18 10 ENE 1014,6 - 12 0,0
17.07.2018 17:00:00 27,4 13,2 33,2 9 5 19 10 E 1014,5 30 42 0,0
17.07.2018 16:00:00 27,4 13,6 34,0 7 4 23 13 N 1014,7 - 46 0,0
17.07.2018 15:00:00 26,9 16,7 34,9 6 3 18 10 NNE 1015,1 - 45 0,0
17.07.2018 14:00:00 20,7 18,1 20,5 9 5 23 13 E 1016,5 30 7 0,8
17.07.2018 13:00:00 27,0 12,6 30,7 5 3 16 8 N 1015,3 - 44 0,0
17.07.2018 12:00:00 27,7 13,1 34,5 8 4 18 10 WSW 1015,2 - 60 0,0
17.07.2018 11:00:00 25,2 12,5 32,6 8 5 19 10 SW 1015,7 45 60 0,0
17.07.2018 10:00:00 23,8 13,2 29,4 8 4 15 8 SW 1016,0 - 60 0,0
17.07.2018 09:00:00 21,7 13,7 27,7 4 2 7 4 WSW 1016,2 - 60 0,0
17.07.2018 08:00:00 19,9 13,0 20,2 3 1 7 4 NNE 1016,3 40 33 0,0
17.07.2018 07:00:00 17,8 13,3 16,8 6 3 15 8 WNW 1016,3 - 0 0,0
17.07.2018 06:00:00 18,0 12,9 16,1 5 3 9 5 NE 1015,7 - 0 0,0
17.07.2018 05:00:00 19,1 12,2 16,3 3 2 11 6 SW 1014,9 - 0 0,0
17.07.2018 04:00:00 18,5 11,9 16,2 5 3 14 8 W 1014,6 - 0 0,0
17.07.2018 03:00:00 19,5 12,0 16,1 3 2 8 4 NE 1014,3 - 0 0,0
17.07.2018 02:00:00 22,5 11,1 19,8 7 4 27 15 NNE 1013,6 - 0 0,0
17.07.2018 01:00:00 21,3 12,4 18,4 11 6 18 10 ESE 1013,6 - 0 0,0
17.07.2018 00:00:00 23,3 10,4 19,9 9 5 18 10 SSE 1012,8 - 0 0,0
16.07.2018 23:00:00 24,5 8,9 22,1 6 3 18 10 NW 1012,0 45 0 0,0
16.07.2018 22:00:00 23,7 10,8 19,3 3 1 10 6 NNW 1011,3 - 0 0,0
16.07.2018 21:00:00 23,7 12,6 21,0 4 2 11 6 NNW 1010,3 - 13 0,0
16.07.2018 20:00:00 27,5 10,8 30,3 7 4 17 9 N 1009,0 45 42 0,0
16.07.2018 19:00:00 27,4 10,8 27,5 9 5 24 13 NNE 1008,6 - 42 0,0
16.07.2018 18:00:00 28,4 11,3 32,7 15 8 30 16 NNE 1007,8 - 60 0,0
16.07.2018 17:00:00 28,5 11,3 34,0 18 10 32 17 NNE 1007,9 45 60 0,0
16.07.2018 16:00:00 27,9 12,5 33,9 16 8 29 15 NNE 1008,6 - 60 0,0
16.07.2018 15:00:00 27,3 13,0 33,4 17 9 33 18 NE 1009,3 - 60 0,0
16.07.2018 14:00:00 26,0 12,9 32,8 13 7 24 13 NNE 1010,4 45 60 0,0
16.07.2018 13:00:00 23,6 13,3 32,3 10 5 23 12 NNE 1011,7 - 60 0,0
16.07.2018 12:00:00 22,5 14,9 29,5 12 7 21 11 NNE 1012,0 - 60 0,0
16.07.2018 11:00:00 21,3 14,8 28,3 8 5 16 9 ENE 1013,1 25 48 0,0
16.07.2018 10:00:00 19,6 16,0 27,4 4 2 9 5 N 1013,8 - 20 0,0
16.07.2018 09:00:00 17,4 15,4 18,3 2 1 8 4 SW 1014,7 - 0 0,0
16.07.2018 08:00:00 16,6 15,3 16,5 4 2 9 5 ESE 1015,0 18 19 0,0
16.07.2018 07:00:00 14,6 13,3 14,7 5 3 7 4 WNW 1015,6 - 16 0,0
16.07.2018 06:00:00 13,6 12,7 11,3 3 2 4 2 SW 1015,8 - 0 0,0
16.07.2018 05:00:00 13,5 13,0 11,7 1 1 8 4 SSW 1016,3 - 0 0,0
16.07.2018 04:00:00 13,7 13,1 11,7 3 2 6 4 NW 1016,5 - 0 0,0
16.07.2018 03:00:00 14,5 13,5 12,4 4 2 6 3 W 1016,8 - 0 0,0
16.07.2018 02:00:00 14,5 13,9 12,9 3 2 8 4 NNW 1016,9 - 0 0,0
16.07.2018 01:00:00 15,8 14,4 13,8 4 2 10 5 W 1016,8 - 0 0,0
16.07.2018 00:00:00 16,2 15,2 14,4 3 2 6 4 WNW 1017,1 - 0 0,0
15.07.2018 23:00:00 17,3 14,9 15,1 3 2 18 10 NNW 1017,0 30 0 0,0
15.07.2018 22:00:00 17,3 15,4 15,6 7 4 31 17 N 1016,3 - 0 0,0
15.07.2018 21:00:00 17,0 15,8 15,9 13 7 38 20 ENE 1015,8 - 0 1,9
15.07.2018 20:00:00 21,7 11,3 22,2 20 11 61 33 NW 1015,1 30 0 0,0
15.07.2018 19:00:00 27,2 16,1 27,0 22 12 34 19 SW 1011,1 - 20 0,0
15.07.2018 18:00:00 28,9 14,3 33,3 19 11 32 18 SSW 1010,9 - 58 0,0
15.07.2018 17:00:00 28,3 13,9 30,2 14 7 36 20 WSW 1011,7 25 17 0,0
15.07.2018 16:00:00 29,6 12,3 34,8 19 11 30 16 SSW 1011,8 - 60 0,0
15.07.2018 15:00:00 29,3 11,4 35,7 10 5 24 13 SSW 1012,2 - 59 0,0
15.07.2018 14:00:00 27,6 14,0 35,3 8 4 22 12 SSW 1013,6 27 60 0,0
15.07.2018 13:00:00 26,5 14,6 34,0 7 4 19 10 W 1014,7 - 60 0,0
15.07.2018 12:00:00 24,0 15,0 32,5 5 3 16 9 SW 1015,5 - 60 0,0
15.07.2018 11:00:00 22,5 15,6 29,8 9 5 18 10 SW 1016,3 23 60 0,0
15.07.2018 10:00:00 20,2 15,2 27,6 3 1 12 6 ESE 1016,7 - 23 0,0
15.07.2018 09:00:00 19,4 15,6 21,6 3 1 6 4 E 1016,7 - 6 0,0
15.07.2018 08:00:00 18,4 14,7 21,3 3 1 6 4 W 1017,1 25 32 0,0
15.07.2018 07:00:00 16,1 14,2 16,0 5 3 7 4 W 1017,3 - 5 0,0
15.07.2018 06:00:00 15,1 13,9 13,2 4 2 7 4 W 1017,5 - 0 0,0
15.07.2018 05:00:00 15,2 14,0 13,0 0 0 10 5 NE 1017,5 - 0 0,0
15.07.2018 04:00:00 15,9 14,1 13,5 4 2 9 5 N 1017,7 - 0 0,0
15.07.2018 03:00:00 16,5 14,2 14,1 5 3 8 4 NNW 1017,8 - 0 0,0

tt = temperature
td = dewpoint
tt 5cm = temperature 5cm
ff = wind speed
fx = gusts
dd = wind direction
ppp = reduced air pressure
vv = visibility
sd = sunshine duration
rr = precipitation

Next stations